EW0415 Weather Reports


time (UTC)temp
F
wind
direction
speed
knots
gust
knots
rain 1hr
in
rain 24hr
in
rain mn
in
humidity
%
barometer
mb
20260504050514 67 296 2.6 10.4 0.00 0.33 0.29 61 1016.4
20260504045509 67 229 2.6 10.4 0.00 0.33 0.29 61 1016.3
20260504045011 67 225 6.1 10.4 0.00 0.33 0.29 60 1016.2
20260504044532 68 277 3.5 11.3 0.00 0.33 0.29 59 1016.2
20260504044008 68 144 3.5 11.3 0.00 0.33 0.29 59 1016.3
20260504043508 68 273 3.5 9.6 0.00 0.33 0.29 59 1016.2
20260504043030 68 268 2.6 9.6 0.00 0.33 0.29 61 1016.2
20260504042509 67 284 3.5 10.4 0.00 0.33 0.29 62 1016.1
20260504042011 67 217 3.5 10.4 0.00 0.33 0.29 63 1016.3
20260504041527 67 252 3.5 10.4 0.00 0.33 0.29 64 1016.3
20260504041010 66 273 2.6 10.4 0.00 0.33 0.29 64 1016.1
20260504040510 66 297 3.5 10.4 0.00 0.33 0.29 63 1016.3
20260504040029 66 220 1.7 10.4 0.00 0.33 0.29 65 1016.4
20260504035512 66 272 1.7 9.6 0.00 0.33 0.29 64 1016.3
20260504035013 66 266 4.3 9.6 0.00 0.33 0.29 63 1016.3
20260504034528 67 274 3.5 10.4 0.00 0.33 0.29 63 1016.3
20260504034017 67 256 3.5 10.4 0.00 0.33 0.29 63 1016.3
20260504033508 66 260 2.6 10.4 0.00 0.33 0.29 63 1016.4
20260504033026 66 297 4.3 10.4 0.00 0.33 0.29 64 1016.2
20260504032512 66 269 4.3 12.2 0.00 0.33 0.29 66 1016.3
20260504032011 66 261 5.2 12.2 0.00 0.33 0.29 65 1016.3
20260504031530 66 290 4.3 10.4 0.00 0.33 0.29 67 1016.3
20260504031012 66 265 3.5 10.4 0.00 0.33 0.29 68 1016.4
20260504030509 65 283 4.3 10.4 0.00 0.33 0.29 67 1016.4
20260504030028 65 273 3.5 9.6 0.00 0.33 0.29 68 1016.5
20260504025510 65 267 2.6 10.4 0.00 0.33 0.29 68 1016.6
20260504025009 65 269 3.5 10.4 0.00 0.33 0.29 67 1016.6
20260504024528 65 301 3.5 8.7 0.00 0.33 0.29 67 1016.5
20260504024009 66 292 3.5 11.3 0.00 0.33 0.29 67 1016.6
20260504023511 66 250 3.5 11.3 0.00 0.33 0.29 68 1016.6
20260504023028 66 204 3.5 10.4 0.00 0.33 0.29 69 1016.6
20260504022513 65 252 3.5 10.4 0.00 0.33 0.29 70 1016.5
20260504022008 65 360 4.3 9.6 0.00 0.33 0.29 71 1016.5
20260504021530 65 360 3.5 12.2 0.00 0.33 0.29 72 1016.6
20260504021009 64 297 5.2 12.2 0.00 0.33 0.29 72 1016.6
20260504020508 64 286 4.3 11.3 0.00 0.33 0.29 73 1016.5
20260504020029 64 360 3.5 9.6 0.00 0.33 0.29 75 1016.6
20260504015509 63 279 1.7 9.6 0.00 0.33 0.29 77 1016.6
20260504015016 63 253 1.7 7.8 0.00 0.33 0.29 77 1016.6
20260504014541 63 215 2.6 7.8 0.00 0.33 0.29 77 1016.5
20260504014009 63 273 3.5 8.7 0.00 0.33 0.29 78 1016.4
20260504013510 63 289 3.5 10.4 0.00 0.33 0.29 78 1016.4
20260504013032 63 296 3.5 13.0 0.00 0.33 0.29 79 1016.3
20260504012515 63 260 4.3 13.0 0.00 0.33 0.29 80 1016.3
20260504012011 63 307 4.3 10.4 0.00 0.33 0.29 81 1016.4
20260504011528 63 288 4.3 10.4 0.00 0.33 0.29 83 1016.3
20260504011010 62 259 3.5 8.7 0.00 0.33 0.29 84 1016.3
20260504010514 62 309 3.5 9.6 0.00 0.33 0.29 84 1016.4
20260504010029 62 308 3.5 9.6 0.00 0.33 0.29 84 1016.3
20260504005510 61 252 2.6 9.6 0.00 0.33 0.29 85 1016.2
20260504005010 62 261 3.5 10.4 0.00 0.33 0.29 85 1016.1
20260504004527 62 238 4.3 12.2 0.00 0.33 0.29 86 1016.0
20260504004010 61 275 3.5 12.2 0.00 0.33 0.29 86 1016.1
20260504003511 61 271 2.6 12.2 0.00 0.33 0.29 86 1015.9
20260504003028 61 260 1.7 7.8 0.00 0.33 0.29 87 1016.1
20260504002510 61 209 0.0 7.8 0.00 0.33 0.29 87 1015.9
20260504002014 61 209 2.6 8.7 0.00 0.33 0.29 87 1015.8
20260504001526 61 258 3.5 8.7 0.00 0.32 0.29 87 1015.8
20260504001009 61 245 1.7 10.4 0.00 0.32 0.29 87 1015.8
20260504000510 61 279 4.3 10.4 0.00 0.32 0.29 87 1015.7
20260504000040 60 249 3.5 10.4 0.00 0.32 0.29 88 1015.7
20260503235510 61 265 2.6 9.6 0.00 0.32 0.29 89 1015.6
20260503235009 60 271 3.5 9.6 0.00 0.32 0.29 89 1015.6
20260503234530 60 239 4.3 8.7 0.00 0.32 0.29 89 1015.6
20260503234009 60 290 1.7 8.7 0.00 0.32 0.29 89 1015.5
20260503233508 59 266 2.6 8.7 0.00 0.32 0.29 89 1015.5
20260503233027 59 284 2.6 8.7 0.00 0.32 0.29 89 1015.4
20260503232512 59 302 0.9 7.0 0.00 0.33 0.29 89 1015.4
20260503232011 59 292 1.7 6.1 0.00 0.33 0.29 89 1015.4
20260503231526 59 295 1.7 6.1 0.00 0.33 0.29 89 1015.3
20260503231010 59 290 0.0 4.3 0.00 0.33 0.29 89 1015.1
20260503230509 59 290 0.9 7.0 0.04 0.33 0.29 89 1015.1
20260503230028 59 0 0.9 7.0 0.07 0.33 0.29 89 1015.0
20260503225515 58 281 1.7 6.1 0.09 0.33 0.29 89 1014.9
20260503225010 58 0 0.0 2.6 0.09 0.33 0.29 89 1014.8
20260503224531 58 0 0.0 2.6 0.09 0.33 0.29 89 1014.7
20260503224014 58 284 0.0 5.2 0.09 0.33 0.29 88 1014.8
20260503223509 58 284 0.9 5.2 0.10 0.33 0.29 88 1014.7
20260503223028 58 282 0.0 5.2 0.10 0.33 0.29 88 1014.6
20260503222511 58 283 0.9 7.0 0.10 0.33 0.29 88 1014.6
20260503222012 58 281 1.7 8.7 0.11 0.33 0.29 88 1014.5
20260503221527 58 0 1.7 8.7 0.13 0.33 0.29 88 1014.5
20260503221011 58 301 0.9 7.8 0.12 0.32 0.28 88 1014.4
20260503220511 58 247 1.7 8.7 0.07 0.26 0.22 88 1014.4
20260503220027 58 263 2.6 8.7 0.04 0.24 0.20 88 1014.3
20260503215510 58 286 0.9 7.0 0.03 0.23 0.19 88 1014.0
20260503215012 58 286 1.7 7.8 0.03 0.23 0.19 88 1014.0
20260503214532 58 291 1.7 7.8 0.03 0.23 0.19 88 1013.9
20260503214010 58 0 1.7 7.0 0.03 0.23 0.19 88 1013.8
20260503213512 58 300 1.7 7.0 0.03 0.22 0.18 88 1013.9
20260503213032 58 297 0.9 7.0 0.03 0.22 0.18 88 1013.9
20260503212517 58 298 1.7 7.0 0.03 0.22 0.18 87 1013.8
20260503212011 58 293 2.6 6.1 0.02 0.22 0.18 87 1013.8
20260503211530 58 0 1.7 7.0 0.00 0.19 0.15 87 1013.8
20260503211011 58 300 1.7 8.7 0.00 0.19 0.15 87 1013.7
20260503210507 58 304 1.7 8.7 0.00 0.19 0.15 87 1013.7
20260503210043 58 304 2.6 9.6 0.00 0.19 0.15 87 1013.7
20260503205516 58 305 1.7 9.6 0.00 0.19 0.15 87 1013.7
20260503205010 58 300 2.6 9.6 0.00 0.19 0.15 87 1013.6
20260503204530 58 292 2.6 10.4 0.00 0.19 0.15 87 1013.7
20260503204013 58 304 3.5 10.4 0.00 0.19 0.15 87 1013.6
20260503203507 58 277 1.7 7.0 0.00 0.19 0.15 87 1013.4
20260503203030 58 279 2.6 7.0 0.00 0.19 0.15 87 1013.3
20260503202511 58 288 2.6 7.0 0.00 0.19 0.15 87 1013.3
20260503202011 58 292 2.6 11.3 0.00 0.19 0.15 86 1013.2
20260503201534 58 292 3.5 11.3 0.07 0.19 0.15 87 1013.4
20260503201010 58 306 3.5 10.4 0.07 0.19 0.15 86 1013.2
20260503200510 58 278 2.6 7.8 0.07 0.19 0.15 86 1013.2
20260503200026 58 273 1.7 7.8 0.07 0.19 0.15 86 1013.0
20260503195511 58 285 1.7 7.0 0.07 0.19 0.15 86 1013.1
20260503195011 58 284 1.7 7.8 0.07 0.19 0.15 85 1013.1
20260503194528 58 281 1.7 7.8 0.07 0.19 0.15 85 1013.1
20260503194009 58 294 2.6 7.0 0.07 0.19 0.15 85 1013.2
20260503193509 58 292 2.6 8.7 0.07 0.19 0.15 85 1013.1
20260503193032 58 284 1.7 10.4 0.07 0.19 0.15 84 1013.1
20260503192507 59 311 4.3 10.4 0.07 0.19 0.15 84 1013.0
20260503192011 59 322 4.3 10.4 0.07 0.19 0.15 84 1013.0
20260503191530 59 309 5.2 13.0 0.00 0.11 0.07 83 1012.9
20260503191009 59 257 4.3 13.0 0.00 0.11 0.07 83 1012.9
20260503190512 59 284 4.3 13.0 0.00 0.11 0.07 84 1012.8
20260503190039 59 297 4.3 8.7 0.00 0.11 0.07 84 1012.9
20260503185509 59 302 3.5 13.0 0.00 0.11 0.07 84 1012.8
20260503185011 59 261 3.5 13.0 0.00 0.11 0.07 84 1012.8
20260503184529 59 303 4.3 11.3 0.00 0.11 0.07 84 1012.8
20260503184011 58 296 3.5 8.7 0.00 0.11 0.07 85 1012.8
20260503183511 58 290 2.6 9.6 0.00 0.11 0.07 85 1012.8
20260503183026 58 296 2.6 9.6 0.00 0.11 0.07 85 1012.8
20260503182510 58 286 3.5 8.7 0.00 0.18 0.07 85 1012.8
20260503182011 58 305 2.6 8.7 0.00 0.18 0.07 85 1012.7
20260503181529 58 323 4.3 8.7 0.00 0.18 0.07 85 1012.8
20260503181009 58 301 3.5 10.4 0.00 0.18 0.07 85 1012.7
20260503180510 58 299 4.3 10.4 0.00 0.18 0.07 86 1012.6
20260503180028 57 302 3.5 10.4 0.00 0.18 0.07 86 1012.8
20260503175511 57 318 4.3 10.4 0.00 0.18 0.07 86 1012.8
20260503175013 57 279 4.3 10.4 0.00 0.18 0.07 86 1012.9
20260503174530 57 296 4.3 11.3 0.00 0.18 0.07 86 1012.9
20260503174015 57 289 5.2 11.3 0.00 0.18 0.07 86 1013.0
20260503173507 57 306 4.3 9.6 0.01 0.18 0.07 86 1013.1
20260503173044 57 259 3.5 9.6 0.01 0.18 0.07 86 1013.2
20260503172509 57 311 2.6 9.6 0.01 0.20 0.07 86 1013.1
20260503172013 57 294 1.7 7.8 0.01 0.20 0.07 86 1013.1
20260503171526 57 285 3.5 8.7 0.01 0.20 0.07 86 1013.1
20260503171011 57 313 3.5 10.4 0.02 0.20 0.07 86 1013.2
20260503170513 57 281 2.6 10.4 0.02 0.20 0.07 86 1013.3
20260503151008 57 313 1.7 7.0 0.03 0.16 0.03 84 1013.4
20260503150510 57 309 0.9 7.0 0.03 0.16 0.03 84 1013.3
20260503131010 57 304 0.9 7.8 0.00 0.12 0.12 84 1014.2
20260503130510 57 300 0.9 7.0 0.00 0.12 0.12 84 1014.2
20260503110510 58 284 0.0 6.1 0.02 0.11 0.11 80 1013.9
20260503090510 61 335 3.5 12.2 0.00 0.09 0.09 71 1013.0
20260503081543 62 284 1.7 7.8 0.00 0.09 0.09 71 1012.5
20260503081013 62 294 2.6 7.8 0.00 0.09 0.09 71 1012.5
20260503080511 62 304 1.7 9.6 0.00 0.09 0.09 71 1012.4
20260503072510 62 304 1.7 7.8 0.00 0.11 0.09 70 1012.3
20260503072012 62 307 1.7 7.8 0.00 0.11 0.09 70 1012.4
20260503071536 62 360 0.9 9.6 0.00 0.11 0.09 70 1012.4
20260503071014 62 297 3.5 11.3 0.00 0.11 0.09 69 1012.4
20260503070511 62 287 3.5 11.3 0.00 0.11 0.09 69 1012.4